Home > Weather > Monaco > Past weeks

Flag for Monaco Past Weather in Monaco, Monaco — Yesterday and Last 2 Weeks

Now
75 °F

Sunny.


Feels Like: 78 °F
Forecast: 71 / 81 °F
Wind: 10 mph from North

Location: Nice Airport

Current Time: Jul 25, 2016 at 8:19:13 AM

Latest Report: Jul 25, 2016 at 8:00 AM


Visibility: 10 mi

Pressure: 29.98 "Hg

Humidity: 54%

Dew Point: 57 °F

Location of MonacoLocation

Past Weather in Monaco — Graph

°F

Monaco Temperature Yesterday

Maximum temperature yesterday: 82 °F (at 6:00 PM)
Minimum temperature yesterday: 72 °F (at 7:00 AM)
Average temperature yesterday: 77 °F

High & Low Weather Summary for the Past Weeks

 TemperatureHumidityPressure
High91 °F (Jul 13, 1:30 PM)89% (Jul 11, 12:00 AM)30.18 "Hg (Jul 11, 12:00 AM)
Low64 °F (Jul 15, 4:30 AM)12% (Jul 13, 4:00 PM)29.62 "Hg (Jul 13, 7:00 PM)
Average75 °F64%29.98 "Hg
* Reported Jul 10 7:00 AM — Jul 25 7:00 AM, Monaco, Weather by CustomWeather, © 2016

Note: Actual official high and low records may vary slightly from our data, if they occured in-between our weather recording intervals... More about our weather records

Advertising

Monaco Weather History for the Previous 24 Hours

Scroll right to see more
 ConditionsComfort  
Time TempWeatherWind HumidityBarometerVisibility
7:00 AM
Mon, Jul 25
73 °FClear.12 mph57%29.98 "Hg10 mi
6:30 AM73 °FClear.10 mph57%29.98 "Hg10 mi
6:00 AM73 °FClear.9 mph57%29.98 "Hg10 mi
5:30 AM73 °FClear.13 mph61%29.95 "Hg10 mi
5:00 AM73 °FClear.12 mph61%29.98 "Hg10 mi
4:30 AM73 °FClear.15 mph61%29.98 "Hg10 mi
4:00 AM73 °FClear.13 mph61%29.98 "Hg10 mi
3:30 AM75 °FClear.9 mph57%29.98 "Hg10 mi
3:00 AM75 °FClear.10 mph57%29.98 "Hg10 mi
2:30 AM75 °FClear.13 mph57%29.98 "Hg10 mi
2:00 AM75 °FClear.13 mph57%29.98 "Hg10 mi
1:30 AM77 °FClear.14 mph54%29.98 "Hg10 mi
1:00 AM79 °FClear.14 mph48%29.98 "Hg10 mi
12:30 AM79 °FClear.10 mph48%29.98 "Hg10 mi
11:30 PM
Sun, Jul 24
77 °FClear.10 mph57%29.98 "Hg10 mi
11:00 PM77 °FClear.9 mph57%29.98 "Hg10 mi
10:34 PM77 °FClear.12 mph57%29.98 "Hg10 mi
10:00 PM79 °FSunny.12 mph54%29.98 "Hg10 mi
9:30 PM79 °FScattered clouds.9 mph51%29.98 "HgN/A
9:00 PM81 °FScattered clouds.8 mph48%29.98 "HgN/A
8:30 PM82 °FPartly sunny.8 mph48%29.98 "HgN/A
8:00 PM81 °FPartly sunny.6 mph54%29.98 "HgN/A
7:30 PM82 °FPartly sunny.6 mph62%29.98 "HgN/A
7:00 PM82 °FScattered clouds.7 mph55%29.98 "HgN/A
6:30 PM81 °FScattered clouds.7 mph66%29.95 "HgN/A
6:00 PM82 °FScattered clouds.5 mph55%29.98 "HgN/A
5:30 PM81 °FScattered clouds.5 mph62%29.98 "HgN/A
5:00 PM81 °FScattered clouds.7 mph66%29.98 "HgN/A
4:30 PM81 °FScattered clouds.6 mph66%29.98 "HgN/A
4:00 PM81 °FScattered clouds.7 mph70%29.98 "HgN/A
3:30 PM79 °FScattered clouds.6 mph79%29.98 "HgN/A
3:00 PM77 °FScattered clouds.3 mph74%30.01 "HgN/A
2:30 PM79 °FScattered clouds.5 mph74%29.98 "HgN/A
2:10 PM79 °FScattered clouds.6 mph74%29.98 "HgN/A
2:00 PM81 °FScattered clouds.7 mph70%29.98 "HgN/A
1:30 PM81 °FPassing clouds.7 mph70%29.98 "HgN/A
1:00 PM81 °FPassing clouds.7 mph66%29.98 "HgN/A
12:30 PM79 °FPassing clouds.9 mph74%29.98 "HgN/A
12:00 PM79 °FPassing clouds.10 mph74%29.98 "HgN/A
11:30 AM79 °FPassing clouds.8 mph70%29.95 "HgN/A
11:00 AM79 °FPassing clouds.8 mph65%29.95 "HgN/A
10:30 AM77 °FPassing clouds.8 mph69%29.95 "HgN/A
10:00 AM79 °FScattered clouds.5 mph58%29.98 "HgN/A
9:30 AM79 °FScattered clouds.6 mph54%29.98 "HgN/A
9:00 AM77 °FScattered clouds.7 mph54%29.98 "HgN/A
8:30 AM75 °FScattered clouds.10 mph54%29.95 "HgN/A
8:00 AM73 °FScattered clouds.10 mph61%29.95 "HgN/A
Weather by CustomWeather, © 2016

See weather overviewHow to use our weather pages